User: anonymous   Login
Location: San Francisco
(37.7750°N, 122.4180°W)
Time: 03:47:29
(UTC-07:00)
Language:

GP-B - Orbit

View from above orbital plane
View from above orbital plane
View from above satellite
View from above satellite

Ground track
Ground track

The orbit data is extracted from the following two-line orbital elements,

1 28230U 04014A   17142.91690947 +.00000163 +00000-0 +20056-4 0  9991
2 28230 089.8451 122.5154 0001989 092.3947 267.7504 14.78536619162564
Epoch (UTC): 22 May 2017 22:00:20
Eccentricity: 0.0001989
inclination: 89.8451°
perigee height: 632 km
apogee height: 635 km
right ascension of ascending node: 122.5154°
argument of perigee: 92.3947°
revolutions per day: 14.78536619
mean anomaly at epoch: 267.7504°
orbit number at epoch: 16256

The dashed part of the orbit path shows where the satellite is in the earth's shadow,  

DLR